weather.gov     
National Weather Service

Regional Weather Roundup
NWS Homepage
This page is being discontinued on March 12, 2014.
The same data is available at this site. Please update your bookmarks.
Thank you, and we apologize for the inconvenience.
Please send an email to SR-SRH.Webmaster@noaa.gov with any concerns.


Current Version
Previous Version:    01  02  03  04  05  06  07  08  09  10  11  12  13  14  15  16  17  18  19  20  21  22  23  24  25  26  
[Printable]
083
ASUS44 KLZK 011505
RWRLZK

WEATHER ROUNDUP FOR ARKANSAS
NATIONAL WEATHER SERVICE LITTLE ROCK AR
1000 AM CDT FRI AUG 01 2014

NOTE: "FAIR" INDICATES FEW OR NO CLOUDS BELOW 12,000 FEET WITH NO
SIGNIFICANT WEATHER AND/OR OBSTRUCTIONS TO VISIBILITY.

ARZ001-003-010-029-011600-
NORTHWEST ARKANSAS

CITY           SKY/WX    TMP DP  RH WIND       PRES   REMARKS
FAYETTEVILLE   CLOUDY    70  64  83 CALM      30.13R
FORT SMITH     CLOUDY    73  67  81 NE6       30.09S
HARRISON       CLOUDY    69  66  90 VRB3      30.13S
BENTONVILLE    CLOUDY    72  64  78 N5        30.14R
ROGERS         PTSUNNY   70  64  83 N5        30.14R
SILOAM SPGS    CLOUDY    72  61  68 CALM      30.14R
HIGHFILL       CLOUDY    71  66  84 N5        30.13R
$$

ARZ004-005-016-011600-
NORTH CENTRAL ARKANSAS

CITY           SKY/WX    TMP DP  RH WIND       PRES   REMARKS
BATESVILLE     CLOUDY    72  64  78 SE3       30.09F
FLIPPIN        CLOUDY    70  64  83 NE3       30.12S
MTN HOME       PTSUNNY   71  65  81 NE3       30.10S
$$

ARZ040-041-011600-
WEST CENTRAL ARKANSAS

CITY           SKY/WX    TMP DP  RH WIND       PRES   REMARKS
MENA           CLOUDY    70  68  94 E3        30.09S
MOUNT IDA      CLOUDY    68  65  90 CALM      30.07S FOG
$$

ARZ009-017-025-026-028-011600-
NORTHEAST ARKANSAS

CITY           SKY/WX    TMP DP  RH WIND       PRES   REMARKS
CORNING        FAIR      73  68  83 CALM      30.10S
JONESBORO      CLOUDY    75  67  76 E5        30.09S
NEWPORT        CLOUDY    73  68  84 E5        30.10F
WALNUT RIDGE   PTSUNNY   72  66  83 NE5       30.09S
BLYTHEVILLE    SUNNY     79  67  66 VRB3      30.08F
NW BLYTHEVILLE PTSUNNY   77  66  69 NE5       30.08
$$

ARZ022-023-033-042-044-011600-
CENTRAL ARKANSAS

CITY           SKY/WX    TMP DP  RH WIND       PRES   REMARKS
LITTLE ROCK    CLOUDY    73  64  73 NE9       30.07F
N LITTLE ROCK  CLOUDY    71  67  87 NE8       30.07F
JACKSONVILLE   MOSUNNY   71  65  80 NE6       30.08S
SEARCY         MOSUNNY   73  66  78 NE9       30.09F
HOT SPRINGS    CLOUDY    70  65  84 E3        30.08S
RUSSELLVILLE   CLOUDY    73  65  75 CALM      30.08F
CLINTON        PTSUNNY   72  68  88 CALM      30.10S
$$

ARZ036-011600-
EAST ARKANSAS

CITY           SKY/WX    TMP DP  RH WIND       PRES   REMARKS
WEST MEMPHIS   CLOUDY    75  68  78 E7        30.06F
$$

ARZ050-053-066-070-073-011600-
SOUTHWEST ARKANSAS

CITY           SKY/WX    TMP DP  RH WIND       PRES   REMARKS
ARKADELPHIA    FAIR      71  69  93 NE5       30.06S
CAMDEN         LGT RAIN  68  66  94 S5        30.05S
TEXARKANA      LGT RAIN  67  66  97 NE6       30.04S FOG
EL DORADO      LGT RAIN  67  67 100 NE7       30.04S FOG
DE QUEEN       CLOUDY    70  67  90 NE8       30.04S
$$

ARZ056-057-069-011600-
SOUTHEAST ARKANSAS

CITY           SKY/WX    TMP DP  RH WIND       PRES   REMARKS
PINE BLUFF     CLOUDY    73  66  78 E6        30.06F
STUTTGART      CLOUDY    75  66  73 NE14      30.07S
MONTICELLO     LGT RAIN  70  68  93 E7        30.05S FOG

$$






U.S. Dept. of Commerce
NOAA National Weather Service
1325 East West Highway
Silver Spring, MD 20910
E-mail: w-nws.webmaster@noaa.gov
Page last modified: May 16, 2007
NATIONAL WEATHER SERVICE: for Safety, for Work, for Fun - FOR LIFE